Tracking 20083 objects as of 12-Dec-2019
HD Live streaming from Space Station
objects crossing your sky now

COSMOS 2251 DEB

Track COSMOS 2251 DEB now!
10-day predictions


NORAD ID: 34972
Int'l Code: 1993-036AFB
Perigee: 704.7 km
Apogee: 785.3 km
Inclination: 74.0 °
Period: 99.6 minutes
Semi major axis: 7116 km
RCS: 0.0076 m2 (small)
Launch date: June 16, 1993
Source: Commonwealth of Independent States (former USSR) (CIS)
Launch site: PLESETSK MISSILE AND SPACE COMPLEX (PKMTR)

Note: This is SATELLITE DEBRIS
aabbcc
Your satellite tracking list
Your tracking list is empty




NASA's NSSDC Master Catalog

Two Line Element Set (TLE):
1 34972U 93036AFB 19345.41240920 +.00000421 +00000-0 +12298-3 0  9992
2 34972 073.9967 240.2354 0056673 198.3036 282.7385 14.46267916557913
Source of the keplerian elements: AFSPC